GORIZONT 18 [-]

Last updated on Sept. 19, 2020, 5:46 a.m. UTC

1 20107U 89052A   20262.38244359  .00000056  00000-0  00000-0 0  9995
2 20107  14.5233 350.4418 0036066 303.0897  76.9093  0.99398351113563
UTC
Height (km)
Latitude
Longitude
Inclination
Orbital Period
UTC large
Height (km)
Speed (km/s)
/
Latitude / Longitude
Inclination (degrees)
Orbital Period (minutes)
Azimuth
Elevation
Range (km)
Doppler Factor
iOS Compass Heading
iOS Angle

Next 30 passes for location: Hong Kong

Rise time Rise Azimuth (degrees) Set time Set Azimuth (degrees) Duration Max altitude (degrees)

No matching passes for this satellites